Regional Weather Roundup
Issued by NWS Austin/San Antonio, TX

Current Version | Previous Version | Text Only | Print | Product List | Glossary On
Versions: 1 2 3 4 5 6 7 8 9 10 11 12 13 14 15 16 17 18 19 20 21 22 23 24 25 26 27 28 29 30 31 32 33 34 35 36 37 38 39 40 41 42 43 44 45 46 47 48 49 50
000
ASUS44 KEWX 052211
RWREWX
SOUTH TEXAS REGIONAL WEATHER ROUNDUP
NATIONAL WEATHER SERVICE AUSTIN/SAN ANTONIO TX
500 PM CDT SUN JUL 05 2020

NOTE: "FAIR" INDICATED FEW OR NO CLOUDS BELOW 12,000 FEET WITH NO
SIGNIFICANT WEATHER AND/OR OBSTRUCTIONS TO VISIBILITY.

* - THESE STATIONS ARE NOT NWS OR FAA STATIONS...AND ARE NOT SUBJECT
    TO NWS AND FAA QUALITY CONTROL.

TXZ171-172-183>190-052300-
TEXAS HILL COUNTRY AND EDWARDS PLATEAU

CITY           SKY/WX    TMP DP  RH WIND       PRES   REMARKS
JUNCTION       CLOUDY    88  69  53 S9G18     29.87R THUNDER HX  92
*LLANO         PTSUNNY   97  64  34 NE13G24   29.84R HX  99
BURNET         PTSUNNY   98  59  27 SE8       29.83F HX  98
*HORSESHOE BAY CLOUDY   102  57  22 SE5       29.80F HX 101
*LAGO VISTA    SUNNY     98  67  36 SE10G16   29.84F HX 102
*KERRVILLE     SUNNY     99  56  23 S12       29.85F HX  98
*FREDERICKSBRG PTSUNNY   97  57  25 S7        29.85F HX  96
*ROCKSPRINGS   CLOUDY    97  55  24 S10G20    29.92F HX  95
*BOERNE        SUNNY     97  59  28 S8        29.85F HX  96
*CASTROVILLE   SUNNY    104  55  19 MISG      29.81F HX 103
HONDO          SUNNY    102  62  26 S10       29.80F HX 104
*UVALDE          N/A    102  57  22 E3        29.80F HX 101
DEL RIO        SUNNY    108  47  13 E13G18    29.75F HX 104
*LAUGHLIN AFB  SUNNY    106  51  15 S13G22    29.76F HX 103
*SPOFFORD      NOT AVBL
*EAGLE PASS    NOT AVBL
CARRIZO SPRGS  MOSUNNY  106  55  18 SW7G16    29.75F HX 105
$$

TXZ173-191>194-202-209-217>225-228-052300-
CENTRAL AND SOUTH CENTRAL TEXAS

CITY           SKY/WX    TMP DP  RH WIND       PRES   REMARKS
GEORGETOWN     SUNNY     98  70  40 S15       29.82F HX 105
*TAYLOR        SUNNY     96  70  42 S12       29.81F HX 102
AUSTIN/BERGSTM MOSUNNY   97  72  44 SE13      29.80F HX 105
AUSTIN/MABRY   SUNNY     99  65  32 SE8G20    29.81F HX 102
*PFLUGERVILLE  SUNNY     95  70  43 S8        29.82F HX 101
SAN MARCOS     SUNNY     98  67  36 SE7       29.81F HX 102
NEW BRAUNFELS  SUNNY    102  59  24 S5        29.80F HX 102
*RANDOLPH AFB  SUNNY    101  57  23 S13       29.81F HX 100
*SEGUIN        SUNNY    101  60  25 SE6       29.84F HX 102
SAN ANTONIO    MOSUNNY  101  60  25 SE13G22   29.82F HX 101
STINSON FIELD  SUNNY     98  62  30 VRB6      29.78F HX  99
*KELLY FIELD   SUNNY    102  61  25 SE7       29.79F HX 103
*PLEASANTON    SUNNY    101  69  35 SE8G21    29.79F HX 108
*KENEDY        SUNNY     97  70  41 SE8       29.81F HX 104
*LA GRANGE     CLOUDY    98  70  40 SE3       29.80F HX 105
*GIDDINGS      CLOUDY    99  64  32 SW5       29.83F HX 101
*GONZALES      CLOUDY    99  67  35 S7        29.81F HX 103
$$

TXZ163>164-176>182-195>201-210>213-226-227-235-052300-
SOUTHEAST TEXAS

CITY           SKY/WX    TMP DP  RH WIND       PRES   REMARKS
COLLEGE STN    CLOUDY    90  75  61 S10       29.82F HX 100
*BRYAN         CLOUDY    90  76  64 SE9       29.84S HX 102
*CALDWELL      CLOUDY    95  68  40 S7        29.82F HX  99
*CROCKETT      NOT AVBL
*BRENHAM       CLOUDY    91  76  61 SE8       29.83F HX 103
HUNTSVILLE     PTSUNNY   89  73  59 S6        29.83F HX  97
CONROE         CLOUDY    89  73  59 SW5       29.84F HX  97
HOUSTON BUSH   PTSUNNY   93  68  43 W6        29.82F HX  97
HOUSTON HOBBY  PTSUNNY   93  69  45 SW5       29.82F HX  98
*HOUSTON SW AP PTSUNNY   91  76  60 SW6       29.83F HX 102
PEARLAND       PTSUNNY   94  70  45 VRB5      29.84F HX 100
HOUSTON HOOKS  PTSUNNY   88  71  57 W5        29.83F HX  94
ELLINGTON FLD  PTSUNNY   95  73  49 S3        29.82F HX 105
SUGAR LAND     PTSUNNY   93  73  52 CALM      29.82F HX 102
*HOUSTON EXEC  PTSUNNY   91  73  55 CALM      29.85S HX 100
*CLEVELAND MUN PTSUNNY   91  71  51 CALM      29.84F HX  96
*WHARTON       SUNNY     93  69  46 SE9       29.84F HX  98
*COLUMBUS      FAIR      91  74  56 SE5       29.84F HX 100
*EAGLE LAKE    CLOUDY    94  75  55 E10       29.83F HX 105
$$

TXZ214>216-236>238-052300-
THE UPPER TEXAS COAST

CITY           SKY/WX    TMP DP  RH WIND       PRES   REMARKS
*ORANGE        PTSUNNY   85  72  64 SE13G18   29.88F HX  91
PORT ARTHUR    PTSUNNY   85  76  74 SE16G25   29.85F HX  94
GALVESTON      MOSUNNY   89  78  70 S16       29.85F HX 103
ANGLETON       MOSUNNY   91  74  57 SW8       29.84F HX 100
*BAY CITY      MOSUNNY   93  77  59 SW5       29.85F HX 106
PALACIOS       SUNNY     88  76  67 S14       29.84F HX  99
$$

TXZ229>234-239>247-052300-
TEXAS COASTAL BEND AND RIO GRANDE PLAINS

CITY           SKY/WX    TMP DP  RH WIND       PRES   REMARKS
VICTORIA       SUNNY     97  72  44 SE8       29.81F HX 105
*BEEVILLE      SUNNY     98  75  47 SW8       29.80F HX 110
ROCKPORT       MOSUNNY   90  77  65 S10G17    29.82F HX 103
*PORT ARANSAS  SUNNY     86  78  79 SE13      29.84F HX  98
*PORT LAVACA   SUNNY     95  78  56 S8        29.83F HX 111
*INGLESIDE     MOSUNNY   92  79  66 S16       29.82F HX 108
CORPUS CHRISTI PTSUNNY   91  79  67 SE13      29.80F HX 107
CORPUS NAS     SUNNY     90  80  72 SE21      29.81F HX 107
*ROBSTOWN      MOSUNNY   99  75  46 SE8       29.80F HX 112
ALICE          MOSUNNY  100  69  36 SE13G20   29.77F HX 106
KINGSVILLE NAS PTSUNNY   97  76  50 SE17      29.78F HX 110
COTULLA        MOSUNNY  107  58  20 SE8       29.75F HX 107
LAREDO         MOSUNNY  106  59  21 S14       29.76F HX 106
$$

TXZ248>255-052300-
DEEP SOUTH TEXAS

CITY           SKY/WX    TMP DP  RH WIND       PRES   REMARKS
BROWNSVILLE    SUNNY     93  74  53 S17G25    29.81F HX 103
PORT ISABEL    SUNNY     94  73  50 S18G25    29.80F HX 103
HARLINGEN      SUNNY     97  69  40 S16       29.79F HX 103
*HEBBRONVILLE  SUNNY    101  56  22 SE8       29.80F HX  99
MCALLEN        SUNNY     99  71  40 S15       29.78F HX 107
*WESLACO       SUNNY     98  64  32 SE10G20   29.79S HX 100
FALFURRIAS     NOT AVBL
EDINBURG       SUNNY     99  62  29 SE8G16    29.79F HX 100
*ZAPATA        SUNNY    106  60  22 SE8G16    29.77F HX 107
$$

TXZ213>215-236>238-242>244-246-247-251-254-255-052300-
CMAN STATIONS

STATION/POSITION TIME  TEMP    WIND        PRES    WAVE
                       AIR SEA DIR/SP/G            HT/PER
                 (UTC) (F)     (DEG/KT/KT) (MB)    (FT/S)
SABINE PASS      2130   76 87   90/ 15/ 20 1013.7
NORTH JETTY/GLS  2130   86 86  200/ 14/ 16 1009.8
EAGLE POINT      2130   88 89   90/  7/ 10 1009.9
MORGANS POINT    2130   91 87  150/  7/ 10 1010.1
PORT O`CONNOR    2130   84 85  170/ 12/ 13 1010.5
PORT ARANSAS     2200   83 85  140/ 13/ 15 1010.0
MALAQUITE BEACH  2130   83     120/ 14/ 16   N/A
BAFFIN BAY       2130   85 93  120/ 18/ 23 1010.0
PORT ISABEL      2130   87 83  150/ 19/ 22 1011.9
$$




USA.gov is the U.S. government's official web portal to all federal, state and local government web resources and services.